Location: Brompton
(51.4000°N, 0.5333°E)
Time: 16:03:27
(UTC+00:00)

Cosmos 1934 Rocket - Pass Details

Date: 11 May 2021
Orbit: 937 x 1000 km, 83.0° (Epoch: 23 June)

Event Time Altitude Azimuth Distance (km) Brightness Sun altitude
Rises 23:30:30 0° 352° (N) 3,666 8.6 -20.3°
Reaches altitude 10° 23:33:07 10° 357° (N) 2,706 7.5 -20.3°
Maximum altitude 23:39:08 52° 74° (ENE) 1,175 4.5 -20.4°
Enters shadow 23:42:13 28° 136° (SE) 1,711 4.9 -20.4°
